Find Starlink 35825

NORAD ID: 66567 Int'l Des: 2025-268 Owner: SPXS Country: US Constellation: starlink operational
LEOCIRCULAR

当前视图

正在加载3D地球...

关于 Starlink 35825

正在加载描述...

即将过境

Passes for default location (London). Set your location on the main map for personalized predictions.

高度历史

Loading altitude history...

两行轨道根数

1 66567U 25268L 26151.27628132 .00033715 00000-0 12288-2 0 9991
2 66567 42.9987 240.3637 0000938 271.4631 88.6113 15.27589453 30593
Epoch: May 31, 2026 • Age: 11 hours

当前状态

高度 482.1 km
速度 7.63 km/s
星下点 11.70°N, 95.93°E
发射日期 Nov 21, 2025
运行时间 0.5 years
类型 internet

技术详情

分类 Payload
质量 575.00 kg
干质量 530.00 kg
总质量 575.00 kg
长度 0.30 m
直径 4.10 m
跨度 29.00 m
形状 Box + pan
制造商 SPXS
平台类型 Starlink V2MO
阶段状态 In Orbit
所有者/国家 SPXS/US

Most Searched